Waarnemingen

Advertentie
Mijn weer
Mierkenis, Zweden (2121): temperatuur & dauwpunt: 16.07.2018 18:00:00 - 22.07.2018 18:00:00 (CEST)Mierkenis, Zweden (2121): windsnelheid & windstoten: 16.07.2018 18:00:00 - 22.07.2018 18:00:00 (CEST)Mierkenis, Zweden (2121): windrichting: 16.07.2018 18:00:00 - 22.07.2018 18:00:00 (CEST)Mierkenis, Zweden (2121): luchtdruk: 16.07.2018 18:00:00 - 22.07.2018 18:00:00 (CEST)Mierkenis, Zweden (2121): zicht: 16.07.2018 18:00:00 - 22.07.2018 18:00:00 (CEST)Mierkenis, Zweden (2121): neerslag: 16.07.2018 18:00:00 - 22.07.2018 18:00:00 (CEST)
Datum & Tijd tt [°C] td [°C] ff [km/u] ff [kn] fx [km/u] fx [kn] dd ppp [hPa] vv [km] rr [mm]
22.07.2018 18:00:00 19,6 10,8 16 9 27 14 NW 1002,5 37 0,0
22.07.2018 17:00:00 20,4 12,1 15 8 31 17 NNW 1002,3 35 0,0
22.07.2018 16:00:00 20,2 11,7 17 9 31 17 NNW 1002,3 45 0,0
22.07.2018 15:00:00 19,1 11,4 18 10 30 16 N 1002,7 40 0,0
22.07.2018 14:00:00 20,2 11,9 15 8 26 14 N 1002,4 32 0,0
22.07.2018 13:00:00 19,8 12,1 14 8 26 14 NNW 1002,8 33 0,0
22.07.2018 12:00:00 19,8 12,3 11 6 26 14 N 1003,0 35 0,0
22.07.2018 11:00:00 18,2 11,7 16 8 28 15 NNW 1003,8 45 0,0
22.07.2018 10:00:00 17,3 12,8 11 6 28 15 NNW 1004,2 34 0,0
22.07.2018 09:00:00 15,8 11,4 16 9 26 14 NNW 1005,0 38 0,0
22.07.2018 08:00:00 15,1 12,4 13 7 29 16 NNW 1005,3 36 0,0
22.07.2018 07:00:00 12,5 10,9 11 6 31 17 NNW 1006,5 22 0,0
22.07.2018 06:00:00 12,6 11,2 14 8 31 17 NNW 1006,4 25 0,0
22.07.2018 05:00:00 12,1 11,3 18 10 33 18 NNW 1006,6 13 0,0
22.07.2018 04:00:00 12,4 11,6 20 11 33 18 N 1006,5 14 0,0
22.07.2018 03:00:00 12,8 11,9 16 9 29 16 NNW 1006,4 24 0,0
22.07.2018 02:00:00 12,9 11,8 13 7 24 13 NW 1006,2 30 0,0
22.07.2018 01:00:00 12,2 10,8 7 4 13 7 N 1006,5 31 0,0
22.07.2018 00:00:00 13,5 12,2 8 4 32 17 NW 1006,4 30 0,0
21.07.2018 23:00:00 15,0 13,0 8 5 32 17 W 1006,1 37 0,0
21.07.2018 22:00:00 15,7 13,5 15 8 26 14 N 1006,0 28 0,1
21.07.2018 21:00:00 16,3 14,5 4 2 16 8 ZO 1006,0 27 0,0
21.07.2018 20:00:00 17,2 14,3 4 2 17 9 ZZO 1005,4 40 0,0
21.07.2018 19:00:00 17,9 13,8 6 3 17 9 OZO 1005,3 45 0,0
21.07.2018 18:00:00 20,4 12,4 6 3 18 10 ZO 1004,7 40 0,0
21.07.2018 17:00:00 19,5 13,0 11 6 18 10 ZZO 1005,5 42 0,0
21.07.2018 16:00:00 18,8 13,9 4 2 41 22 W 1006,1 36 0,0
21.07.2018 15:00:00 15,5 14,0 6 3 41 22 W 1007,2 31 6,0
21.07.2018 14:00:00 20,4 10,8 17 9 39 21 ZZW 1005,9 37 0,0
21.07.2018 13:00:00 23,0 12,3 16 9 30 16 ZO 1004,5 44 0,0
21.07.2018 12:00:00 22,5 11,9 14 7 25 14 ZZO 1005,5 35 0,0
21.07.2018 11:00:00 21,6 12,2 13 7 25 14 ZO 1006,4 32 0,0
21.07.2018 10:00:00 20,5 13,2 13 7 19 10 ZO 1007,1 36 0,0
21.07.2018 09:00:00 17,9 12,1 5 3 13 7 Z 1008,1 35 0,0
21.07.2018 08:00:00 16,8 11,9 3 2 10 6 ZO 1008,5 42 0,0
21.07.2018 07:00:00 14,3 11,6 5 3 10 6 ZO 1009,7 39 0,0
21.07.2018 06:00:00 10,4 9,9 2 1 13 7 ZZW 1011,0 18 0,0
21.07.2018 05:00:00 - - - - 13 7 - - - -
21.07.2018 04:00:00 8,7 8,3 5 3 12 7 WNW 1011,9 9 0,0
21.07.2018 03:00:00 9,1 8,8 8 5 11 6 NW 1012,0 7 0,0
21.07.2018 02:00:00 9,3 8,8 7 4 10 5 NW 1012,3 8 0,0
21.07.2018 01:00:00 10,0 9,5 4 2 10 5 WNW 1012,6 8 0,0
21.07.2018 00:00:00 11,2 10,7 7 4 9 5 NW 1012,6 11 0,0
20.07.2018 23:00:00 12,4 11,3 5 3 9 5 NNW 1012,3 31 0,0
20.07.2018 22:00:00 14,1 12,0 5 3 10 5 NNW 1011,9 38 0,0
20.07.2018 21:00:00 18,1 14,2 2 1 10 5 ZO 1010,8 46 0,0
20.07.2018 20:00:00 20,5 14,8 2 1 6 3 W 1010,3 37 0,0
20.07.2018 19:00:00 19,6 14,2 0 0 7 4 N 1011,0 44 0,0
20.07.2018 18:00:00 20,5 13,9 0 0 8 4 N 1010,8 43 0,0
20.07.2018 17:00:00 19,9 14,0 4 2 10 6 Z 1011,2 42 0,0
20.07.2018 16:00:00 20,1 13,8 6 3 10 6 ZO 1011,6 46 0,0
20.07.2018 15:00:00 20,3 13,7 4 2 11 6 OZO 1012,1 41 0,0
20.07.2018 14:00:00 20,0 14,1 3 1 11 6 WZW 1012,2 42 0,0
20.07.2018 13:00:00 19,9 12,6 6 3 11 6 ZZO 1012,5 34 0,0
20.07.2018 12:00:00 19,3 13,7 6 3 13 7 ZZO 1013,0 36 0,0
20.07.2018 11:00:00 18,0 12,9 3 2 18 10 WZW 1013,8 43 0,0
20.07.2018 10:00:00 16,6 13,1 9 5 18 10 NNW 1014,4 33 0,0
20.07.2018 09:00:00 13,8 11,5 9 5 17 9 NW 1015,3 28 0,0
20.07.2018 08:00:00 13,5 11,0 10 5 17 9 NNW 1015,4 36 0,0
20.07.2018 07:00:00 12,0 10,6 9 5 19 10 NNW 1016,0 25 0,0
20.07.2018 06:00:00 11,2 10,1 9 5 19 10 NW 1016,6 22 0,0
20.07.2018 05:00:00 10,8 9,9 9 5 21 12 NW 1017,2 20 0,0
20.07.2018 04:00:00 10,7 9,6 8 4 21 12 NW 1017,4 27 0,0
20.07.2018 03:00:00 11,0 10,1 11 6 24 13 NW 1017,7 34 0,0
20.07.2018 02:00:00 10,9 10,1 10 6 24 13 NW 1017,8 26 0,0
20.07.2018 01:00:00 11,1 10,0 13 7 27 15 NNW 1018,0 41 0,0
20.07.2018 00:00:00 11,6 10,3 16 8 27 15 NNW 1017,7 41 0,0
19.07.2018 23:00:00 12,0 10,6 14 7 25 14 NNW 1017,7 45 0,0
19.07.2018 22:00:00 12,8 10,7 16 8 25 14 NNW 1017,7 50 0,0
19.07.2018 21:00:00 13,1 10,8 17 9 29 16 NNW 1018,0 50 0,0
19.07.2018 20:00:00 13,6 11,1 16 8 34 19 NNW 1017,7 50 0,0
19.07.2018 19:00:00 14,3 11,1 21 11 37 20 NNW 1017,6 50 0,0
19.07.2018 18:00:00 14,8 11,4 21 12 37 20 NNW 1017,0 50 0,0
19.07.2018 17:00:00 15,4 11,8 22 12 37 20 N 1016,8 42 0,0
19.07.2018 16:00:00 15,2 12,3 23 13 37 20 N 1016,9 33 0,0
19.07.2018 15:00:00 17,1 13,6 20 11 37 20 N 1016,2 25 0,0
19.07.2018 14:00:00 18,4 14,5 18 10 28 15 NNW 1015,6 29 0,0
19.07.2018 13:00:00 19,3 16,3 11 6 19 10 NNW 1015,1 26 0,2
19.07.2018 12:00:00 16,8 16,0 5 3 15 8 W 1016,0 8 2,5
19.07.2018 11:00:00 19,8 14,6 5 3 12 7 ZO 1014,4 33 0,0
19.07.2018 10:00:00 19,4 14,4 6 3 14 8 ZZO 1014,4 27 0,0
19.07.2018 09:00:00 19,1 14,8 8 5 14 8 ZZO 1014,6 32 0,0
19.07.2018 08:00:00 17,8 15,1 5 3 10 5 ZO 1015,0 28 0,0
19.07.2018 07:00:00 14,9 13,8 5 3 16 9 ZZO 1015,9 20 0,0
19.07.2018 06:00:00 12,0 11,8 5 3 16 9 NW 1016,9 8 0,0
19.07.2018 05:00:00 11,0 10,8 4 2 9 5 NNW 1016,7 0,2 0,0
19.07.2018 04:00:00 10,2 9,9 0 0 9 5 N 1017,0 0,8 0,0
19.07.2018 03:00:00 10,4 10,1 0 0 6 3 N 1017,0 0,8 0,0
19.07.2018 02:00:00 10,9 10,6 0 0 8 4 N 1016,9 0,6 0,0
19.07.2018 01:00:00 12,0 11,5 3 1 15 8 ZO 1016,9 1,3 0,0
19.07.2018 00:00:00 13,7 13,2 8 4 15 8 W 1016,6 19 0,0
18.07.2018 23:00:00 14,3 13,8 3 1 17 9 ZZO 1016,3 12 0,0
18.07.2018 22:00:00 15,3 13,8 8 5 23 12 Z 1016,4 42 0,7
18.07.2018 21:00:00 15,1 13,8 7 4 28 15 ZO 1016,2 39 0,4
18.07.2018 20:00:00 16,7 12,2 12 6 49 27 ONO 1015,9 12 2,8
18.07.2018 19:00:00 17,6 12,1 8 4 49 27 WNW 1016,2 29 0,6
18.07.2018 18:00:00 22,2 9,7 20 11 48 26 OZO 1014,4 50 0,0
18.07.2018 17:00:00 23,5 9,5 26 14 48 26 ZO 1014,2 42 0,0
18.07.2018 16:00:00 25,5 9,9 21 11 44 24 ZO 1013,2 40 0,0
18.07.2018 15:00:00 26,5 8,5 20 11 46 25 ZZO 1013,4 37 0,0
18.07.2018 14:00:00 26,6 7,6 24 13 46 25 ZO 1014,0 36 0,0
18.07.2018 13:00:00 26,2 6,2 23 13 44 24 ZZO 1014,3 34 0,0
18.07.2018 12:00:00 25,3 9,6 24 13 37 20 ZO 1014,5 36 0,0
18.07.2018 11:00:00 23,8 13,6 16 8 29 16 ZO 1015,5 30 0,0
18.07.2018 10:00:00 22,6 13,4 17 9 28 15 ZZO 1016,2 30 0,0
18.07.2018 09:00:00 21,3 13,7 11 6 22 12 OZO 1016,8 40 0,0
18.07.2018 08:00:00 20,5 13,2 13 7 21 11 OZO 1017,0 43 0,0
18.07.2018 07:00:00 17,3 14,4 3 2 9 5 ZO 1017,9 34 0,0
18.07.2018 06:00:00 12,6 11,8 4 2 9 5 W 1019,1 14 0,0
18.07.2018 05:00:00 13,1 12,5 8 4 9 5 NNW 1019,0 19 0,0
18.07.2018 04:00:00 12,6 12,0 4 2 11 6 NW 1019,2 16 0,0
18.07.2018 03:00:00 12,5 11,9 8 4 11 6 NNW 1019,3 13 0,0
18.07.2018 02:00:00 13,2 12,3 4 2 11 6 NNW 1019,1 18 0,0
18.07.2018 01:00:00 13,6 12,8 9 5 13 7 NNW 1018,8 16 0,0
18.07.2018 00:00:00 14,6 13,3 8 4 13 7 NW 1018,3 18 0,0
17.07.2018 23:00:00 14,9 13,4 8 4 11 6 NNW 1018,2 18 0,0
17.07.2018 22:00:00 16,2 13,7 8 4 10 6 NNW 1017,8 20 0,0
17.07.2018 21:00:00 19,4 15,3 3 1 10 5 NW 1016,7 23 0,0
17.07.2018 20:00:00 21,3 15,4 3 1 23 12 W 1016,0 25 0,0
17.07.2018 19:00:00 25,5 11,6 11 6 23 12 ZO 1015,0 24 0,0
17.07.2018 18:00:00 27,1 11,2 8 4 14 7 ZZW 1014,5 28 0,0
17.07.2018 17:00:00 22,7 18,9 2 1 7 4 WNW 1015,6 27 0,0
17.07.2018 16:00:00 23,9 18,8 0 0 18 10 N 1015,6 24 0,0
17.07.2018 15:00:00 20,9 19,2 3 2 28 15 N 1016,8 26 2,4
17.07.2018 14:00:00 21,1 13,8 14 7 28 15 N 1016,8 33 0,0
17.07.2018 13:00:00 25,2 11,7 10 5 28 15 ZO 1015,5 38 0,0
17.07.2018 12:00:00 26,6 13,7 12 7 24 13 ZO 1015,2 37 0,0
17.07.2018 11:00:00 24,5 12,4 13 7 23 13 OZO 1015,9 36 0,0
17.07.2018 10:00:00 23,2 12,8 12 7 23 12 ZO 1016,3 44 0,0
17.07.2018 09:00:00 22,4 14,0 8 4 13 7 ZZO 1016,7 49 0,0
17.07.2018 08:00:00 20,5 13,2 5 3 8 4 OZO 1017,2 40 0,0
17.07.2018 07:00:00 18,6 13,5 2 1 10 5 NNO 1017,6 44 0,0
17.07.2018 06:00:00 11,9 11,4 7 4 10 5 NNW 1019,3 45 0,0
17.07.2018 05:00:00 11,3 10,7 2 1 8 5 NW 1019,5 37 0,0
17.07.2018 04:00:00 11,7 11,1 6 3 8 4 NNW 1019,2 45 0,0
17.07.2018 03:00:00 12,2 11,6 5 3 10 5 NW 1019,0 50 0,0
17.07.2018 02:00:00 12,3 11,5 5 3 10 5 NW 1018,7 50 0,0
17.07.2018 01:00:00 13,7 11,9 0 0 9 5 N 1018,1 50 0,0
17.07.2018 00:00:00 16,1 12,1 5 3 9 5 Z 1017,3 50 0,0
16.07.2018 23:00:00 16,7 12,8 3 2 9 5 ZZW 1016,7 50 0,0
16.07.2018 22:00:00 18,2 13,3 4 2 12 7 WZW 1015,9 50 0,0
16.07.2018 21:00:00 22,2 12,7 4 2 16 9 Z 1014,5 50 0,0
16.07.2018 20:00:00 23,5 12,2 6 3 16 9 ZZO 1014,0 49 0,0
16.07.2018 19:00:00 23,7 11,7 7 4 17 9 ZZO 1013,8 47 0,0
16.07.2018 18:00:00 25,0 11,9 7 4 17 9 ZZO 1013,4 50 0,0

tt = temperatuur
td = dauwpunt
ff = windsnelheid
fx = windstoten
dd = windrichting
ppp = luchtdruk
vv = zicht
rr = neerslag

Weerstations in de omgeving